User: anonymous   Login
Location: NJAA Observatory
(40.6819°N, 74.8979°W)
Time: 09:24:37
(UTC-04:00)
Language:

ALOS - Orbit

View from above orbital plane
View from above orbital plane
View from above satellite
View from above satellite

Ground track
Ground track

The orbit data is extracted from the following two-line orbital elements,

1 28931U 06002A   18170.89733717 +.00000100 +00000-0 +28377-4 0  9995
2 28931 097.8194 184.3260 0000536 097.9259 262.2017 14.62501829661205
Epoch (UTC): 19 June 2018 21:32:09
Eccentricity: 0.0000536
inclination: 97.8194°
perigee height: 685 km
apogee height: 685 km
right ascension of ascending node: 184.3260°
argument of perigee: 97.9259°
revolutions per day: 14.62501829
mean anomaly at epoch: 262.2017°
orbit number at epoch: 66120

The dashed part of the orbit path shows where the satellite is in the earth's shadow,  

DLR